Location: Newark
(0.5300°S, 127.4800°E)
Time: 20:13:14
(UTC+00:00)

Vanguard 3 - Pass Details

Date: 24 September 2019
Orbit: 508 x 3262 km, 33.3° (Epoch: 21 October)

Event Time Altitude Azimuth Distance (km) Brightness Sun altitude
Rises 00:03:05 0° 305° (NW) 5,873 11.2 40.2°
Reaches altitude 10° 00:09:26 10° 325° (NW) 5,386 11.2 41.8°
Maximum altitude 00:18:29 16° 358° (N) 5,395 11.5 44.0°
Drops below altitude 10° 00:28:46 10° 31° (NNE) 6,182 12.1 46.6°
Sets 00:37:15 0° 50° (NE) 7,163 12.4 48.7°
